Flag for Pakistan Weather past 2 weeks in Lahore, Pakistan

Now
106 °F

Clear.


Feels Like: 103 °F
Forecast: 83 / 106 °F
Wind: 8 mph from West

Location: Lahore Airport

Current Time: May 30, 2015 at 6:07:19 PM

Latest Report: May 30, 2015 at 5:25 PM


Visibility: 4 mi

Pressure: 29.59 "Hg

Humidity: 15%

Dew point: 50 °F

Location of LahoreLocation

Historic Weather in Lahore — Graph

°F

Lahore temperature yesterday

Maximum temperature yesterday: 106 °F (at 3:25 PM)
Minimum temperature yesterday: 86 °F (at 2:55 AM)
Average temperature yesterday: 95 °F

Past Weeks' High & Low Weather Summary

 TemperatureHumidityPressure
High111 °F (May 23, 2:25 PM)65% (May 16, 4:25 AM)29.74 "Hg (May 16, 4:25 AM)
Low75 °F (May 16, 4:25 AM)7% (May 27, 2:30 PM)29.42 "Hg (May 23, 3:55 PM)
Average94 °F30%29.59 "Hg
* Reported May 15 4:25 PM — May 30 4:55 PM, Lahore, Weather by CustomWeather, © 2015

Note: Actual official high and low records may vary slightly from our data, if they occured in-between our weather recording intervals... More about our weather records

Advertising

Lahore weather history for previous 24 hours

 ConditionsComfort  
Time TempWeatherWind HumidityBarometerVisibility
4:55 PM
Sat, May 30
108 °FClear.10 mph15%29.59 "Hg4 mi
4:25 PM108 °FClear.7 mph14%29.62 "Hg4 mi
3:55 PM108 °FClear.7 mph14%29.62 "Hg4 mi
3:25 PM108 °FPassing clouds.9 mph15%29.62 "Hg4 mi
2:55 PM108 °FPassing clouds.No wind15%29.65 "Hg4 mi
2:25 PM108 °FPassing clouds.6 mph15%29.65 "Hg4 mi
1:55 PM106 °FPassing clouds.5 mph15%29.65 "Hg4 mi
1:25 PM106 °FPassing clouds.5 mph17%29.68 "Hg4 mi
12:55 PM106 °FPassing clouds.3 mph17%29.68 "Hg4 mi
12:25 PM104 °FPassing clouds.6 mph16%29.68 "Hg4 mi
11:55 AM104 °FPassing clouds.5 mph16%29.71 "Hg4 mi
11:25 AM102 °FPassing clouds.6 mph20%29.71 "Hg4 mi
10:55 AM100 °FPassing clouds.5 mph21%29.71 "Hg4 mi
10:25 AM100 °FClear.5 mph22%29.71 "Hg4 mi
9:55 AM99 °FClear.No wind24%29.71 "Hg4 mi
9:25 AM97 °FClear.3 mph27%29.71 "Hg4 mi
8:55 AM95 °FClear.3 mph28%29.71 "Hg4 mi
8:25 AM93 °FClear.5 mph32%29.71 "Hg4 mi
7:55 AM90 °FClear.6 mph36%29.71 "Hg4 mi
7:30 AM88 °FClear.8 mph38%29.71 "Hg4 mi
7:00 AM86 °FClear.5 mph40%29.68 "Hg4 mi
6:30 AM84 °FHaze.7 mph40%29.68 "Hg3 mi
4:59 AM82 °FHaze.7 mph45%29.68 "Hg2 mi
4:30 AM84 °FHaze.10 mph40%29.65 "Hg2 mi
4:00 AM84 °FHaze.10 mph40%29.65 "Hg2 mi
3:30 AM86 °FHaze.8 mph40%29.65 "Hg2 mi
2:55 AM86 °FHaze.8 mph40%29.65 "Hg2 mi
2:25 AM88 °FPassing clouds.6 mph38%29.65 "Hg2 mi
1:55 AM88 °FPassing clouds.3 mph38%29.65 "Hg2 mi
1:25 AM90 °FPassing clouds.3 mph36%29.65 "Hg2 mi
12:55 AM90 °FPassing clouds.3 mph36%29.65 "Hg2 mi
12:25 AM91 °FPassing clouds.5 mph32%29.68 "Hg2 mi
11:55 PM
Fri, May 29
91 °FPassing clouds.7 mph32%29.68 "Hg2 mi
11:25 PM93 °FPassing clouds.9 mph30%29.68 "Hg3 mi
10:55 PM93 °FPassing clouds.6 mph30%N/A3 mi
10:30 PM95 °FPassing clouds.7 mph28%29.68 "Hg3 mi
8:55 PM97 °FPassing clouds.6 mph25%29.68 "Hg3 mi
8:25 PM97 °FPassing clouds.7 mph25%29.68 "Hg3 mi
7:55 PM99 °FPassing clouds.9 mph24%29.65 "Hg3 mi
7:25 PM99 °FPassing clouds.9 mph24%29.65 "Hg3 mi
6:55 PM100 °FPassing clouds.7 mph22%29.65 "Hg4 mi
6:25 PM102 °FClear.7 mph20%29.62 "Hg4 mi
Weather by CustomWeather, © 2015

See weather overviewHow to use our weather pages